GW3823 Weather Reports


Display with metric or nautical units.
time (UTC)temp
F
wind
direction
speed
MPH
gust
MPH
rain 1hr
in
rain 24hr
in
rain mn
in
humidity
%
barometer
mb
20260507183306 51 165 3.0 15.0 0.00 0.20 0.01 46 1010.8
20260507182806 50 198 7.0 20.0 0.00 0.20 0.01 46 1010.9
20260507181806 50 159 11.0 23.0 0.00 0.20 0.01 46 1010.9
20260507181306 50 168 10.0 17.0 0.00 0.20 0.01 45 1011.2
20260507180806 48 199 9.0 17.0 0.00 0.20 0.01 45 1015.8
20260507180306 50 159 5.0 13.0 0.00 0.24 0.01 40 1011.1
20260507175806 48 170 5.0 13.0 0.00 0.24 0.01 45 1011.2
20260507175307 48 171 3.0 12.0 0.00 0.24 0.01 46 1011.2
20260507174806 48 157 5.0 12.0 0.00 0.24 0.01 42 1021.3
20260507174306 48 173 4.0 12.0 0.00 0.24 0.01 49 1011.3
20260507173805 48 160 5.0 9.0 0.00 0.24 0.01 48 1011.4
20260507173306 48 204 4.0 12.0 0.00 0.24 0.01 39 1011.5
20260507172806 48 158 5.0 10.0 0.00 0.25 0.01 49 1011.4
20260507172307 48 179 3.0 9.0 0.00 0.25 0.01 49 1020.9
20260507171805 48 163 3.0 9.0 0.00 0.25 0.01 45 1011.4
20260507171305 48 185 3.0 9.0 0.00 0.25 0.01 45 1021.1
20260507170805 48 136 6.0 9.0 0.00 0.25 0.01 45 1011.3
20260507165805 45 193 3.0 7.0 0.00 0.28 0.01 46 1011.6
20260507165306 44 211 3.0 7.0 0.00 0.28 0.01 49 1011.6
20260507164805 44 199 3.0 9.0 0.01 0.28 0.01 48 1011.8
20260507164306 45 197 2.0 9.0 0.01 0.28 0.01 47 1011.8
20260507163806 44 217 1.0 7.0 0.01 0.28 0.01 46 1011.9
20260507163305 43 51 4.0 7.0 0.01 0.28 0.01 47 1019.0
20260507162805 43 74 3.0 5.0 0.01 0.28 0.01 46 1011.9
20260507162307 43 195 2.0 5.0 0.01 0.28 0.01 50 1017.6
20260507161805 43 51 3.0 5.0 0.01 0.28 0.01 47 1011.8
20260507161305 42 258 2.0 5.0 0.01 0.28 0.01 48 1012.1
20260507160805 43 61 1.0 5.0 0.01 0.28 0.01 48 1012.2
20260507155805 40 231 2.0 5.0 0.01 0.28 0.01 51 1012.4
20260507155307 38 185 2.0 7.0 0.00 0.27 0.00 53 1012.7
20260507154304 38 108 2.0 3.0 0.00 0.27 0.00 55 1012.8
20260507153806 36 86 1.0 8.0 0.00 0.27 0.00 53 1012.9
20260507153305 38 21 3.0 5.0 0.00 0.27 0.00 53 1024.7
20260507152306 38 70 3.0 6.0 0.00 0.27 0.00 57 1013.2
20260507151804 33 38 4.0 6.0 0.00 0.27 0.00 59 1013.3
20260507150804 38 62 1.0 2.0 0.00 0.27 0.00 60 1013.5
20260507150304 37 54 1.0 2.0 0.00 0.27 0.00 55 1013.5
20260507145306 30 28 1.0 5.0 0.00 0.27 0.00 66 1013.6
20260507144804 30 60 2.0 3.0 0.00 0.27 0.00 66 1013.6
20260507144304 30 22 2.0 3.0 0.00 0.27 0.00 67 1013.6
20260507143303 29 224 0.0 1.0 0.00 0.27 0.00 68 1013.7
20260507142804 29 257 0.0 2.0 0.00 0.27 0.00 69 1013.5
20260507142306 29 242 1.0 5.0 0.00 0.27 0.00 70 1013.6
20260507141804 29 205 0.0 2.0 0.00 0.27 0.00 70 1025.3
20260507141304 28 355 1.0 2.0 0.00 0.27 0.00 70 1013.7
20260507140805 29 60 0.0 5.0 0.00 0.27 0.00 71 1013.7
20260507140305 27 47 3.0 5.0 0.00 0.27 0.00 70 1025.1
20260507135804 27 46 2.0 3.0 0.00 0.28 0.00 71 1013.6
20260507135306 27 336 1.0 5.0 0.00 0.28 0.00 71 1013.9
20260507134803 27 55 3.0 5.0 0.00 0.28 0.00 72 1013.7
20260507134304 26 48 2.0 5.0 0.00 0.28 0.00 83 1013.5
20260507133804 26 41 3.0 5.0 0.00 0.28 0.00 73 1013.6
20260507133304 26 61 3.0 5.0 0.00 0.28 0.00 74 1013.7
20260507132805 26 68 3.0 6.0 0.00 0.28 0.00 74 1013.6
20260507132307 25 61 3.0 5.0 0.00 0.28 0.00 76 1013.8
20260507131805 24 63 3.0 5.0 0.00 0.28 0.00 75 1013.5
20260507130803 24 69 4.0 9.0 0.00 0.28 0.00 76 1013.7
20260507130304 24 47 5.0 6.0 0.00 0.28 0.00 77 1013.7
20260507125804 24 54 3.0 9.0 0.00 0.31 0.00 82 1013.6
20260507125307 24 62 4.0 9.0 0.00 0.31 0.00 77 1013.5
20260507124804 23 48 4.0 8.0 0.00 0.31 0.00 77 1013.5
20260507123805 23 63 3.0 8.0 0.00 0.31 0.00 77 1013.3
20260507123304 24 61 4.0 8.0 0.00 0.31 0.00 77 1023.0
20260507122804 23 25 3.0 8.0 0.00 0.31 0.00 78 1013.3
20260507122307 23 49 5.0 8.0 0.00 0.31 0.00 77 1024.2
20260507121804 23 25 2.0 7.0 0.00 0.31 0.00 77 1013.4
20260507121304 23 57 5.0 8.0 0.00 0.31 0.00 80 1013.3
20260507120805 22 61 5.0 9.0 0.00 0.31 0.00 79 1013.3
20260507120303 22 69 6.0 8.0 0.00 0.31 0.00 80 1013.3
20260507115307 22 57 5.0 9.0 0.00 0.34 0.00 79 1013.6
20260507114804 23 74 5.0 7.0 0.00 0.37 0.00 79 1013.3
20260507114305 24 54 4.0 6.0 0.00 0.37 0.00 80 1013.4
20260507112805 24 87 4.0 9.0 0.00 0.37 0.00 78 1013.5
20260507112307 23 67 6.0 10.0 0.00 0.37 0.00 78 1013.4
20260507111804 23 40 3.0 8.0 0.00 0.37 0.00 78 1013.4
20260507110805 23 67 6.0 8.0 0.00 0.37 0.00 79 1013.3
20260507110305 23 69 5.0 8.0 0.00 0.37 0.00 78 1013.2
20260507105803 23 58 5.0 8.0 0.00 0.37 0.00 79 1013.3
20260507105306 24 80 2.0 6.0 0.00 0.37 0.00 77 1020.7
20260507104804 24 59 3.0 7.0 0.00 0.37 0.00 78 1012.9
20260507104304 23 68 5.0 8.0 0.00 0.37 0.00 77 1013.2
20260507103805 24 66 6.0 9.0 0.00 0.37 0.00 77 1013.3
20260507103304 24 72 3.0 9.0 0.00 0.37 0.00 77 1013.2
20260507102804 24 74 5.0 9.0 0.00 0.37 0.00 78 1013.3
20260507102306 23 36 5.0 7.0 0.00 0.37 0.00 78 1013.2
20260507101804 24 58 6.0 8.0 0.00 0.37 0.00 78 1013.3
20260507101304 23 63 4.0 8.0 0.00 0.37 0.00 77 1013.3
20260507100804 24 86 5.0 8.0 0.00 0.37 0.00 78 1013.3
20260507100304 23 68 3.0 7.0 0.00 0.37 0.00 77 1013.3
20260507095306 23 43 3.0 8.0 0.00 0.37 0.00 77 1018.3
20260507094804 24 93 3.0 8.0 0.00 0.37 0.00 78 1013.2
20260507094306 23 69 4.0 8.0 0.00 0.37 0.00 78 1013.3
20260507093805 23 71 5.0 8.0 0.00 0.37 0.00 79 1021.0
20260507093307 23 51 5.0 8.0 0.00 0.37 0.00 77 1013.3
20260507092806 23 64 6.0 8.0 0.00 0.37 0.00 78 1013.2
20260507092307 25 68 4.0 6.0 0.00 0.37 0.00 78 1021.3
20260507091306 23 56 5.0 8.0 0.00 0.37 0.00 76 1018.3
20260507090806 23 60 5.0 7.0 0.00 0.37 0.00 77 1013.2
20260507090306 24 50 4.0 8.0 0.00 0.37 0.00 76 1013.2
20260507085306 24 69 2.0 9.0 0.00 0.37 0.00 75 1013.2
20260507084806 25 42 4.0 9.0 0.00 0.37 0.00 76 1013.2
20260507084307 25 51 5.0 7.0 0.00 0.37 0.00 74 1013.1
20260507083806 26 67 3.0 6.0 0.00 0.37 0.00 75 1013.1
20260507083306 25 63 5.0 9.0 0.00 0.37 0.00 74 1013.3
20260507082806 26 46 4.0 9.0 0.00 0.37 0.00 75 1013.4
20260507081806 26 45 6.0 9.0 0.00 0.37 0.00 75 1013.5
20260507080806 26 20 3.0 9.0 0.00 0.37 0.00 76 1020.2
20260507075806 24 62 5.0 7.0 0.00 0.37 0.00 75 1023.1
20260507075307 25 26 3.0 8.0 0.00 0.37 0.00 75 1013.5
20260507074806 25 15 3.0 7.0 0.00 0.37 0.00 75 1013.6
20260507074306 25 46 3.0 7.0 0.00 0.37 0.00 74 1013.5
20260507073806 27 44 2.0 6.0 0.00 0.37 0.00 74 1013.5
20260507073305 25 95 2.0 9.0 0.00 0.37 0.00 74 1023.5
20260507072806 25 53 4.0 9.0 0.00 0.37 0.00 74 1013.5
20260507072308 25 53 5.0 7.0 0.00 0.37 0.00 74 1013.6
20260507071805 25 61 3.0 6.0 0.00 0.37 0.00 73 1019.1
20260507071306 27 60 4.0 8.0 0.00 0.37 0.00 72 1013.6
20260507070806 27 51 6.0 8.0 0.00 0.37 0.00 70 1020.2
20260507070306 28 53 4.0 10.0 0.00 0.37 0.00 73 1013.5
20260507065306 26 73 5.0 9.0 0.00 0.37 0.00 70 1013.5
20260507064806 27 42 6.0 9.0 0.00 0.37 0.00 71 1013.4
20260507064306 28 71 6.0 10.0 0.00 0.38 0.00 70 1023.8
20260507063806 26 57 6.0 10.0 0.00 0.38 0.00 73 1013.5
20260507063306 28 61 7.0 8.0 0.00 0.38 0.00 70 1013.6
20260507062306 28 46 7.0 13.0 0.00 0.38 0.00 69 1013.4
20260507061805 27 57 7.0 10.0 0.00 0.38 0.00 70 1013.5
20260507061306 27 28 7.0 13.0 0.00 0.38 0.00 72 1013.4
20260507060806 27 59 6.0 13.0 0.00 0.38 0.00 70 1013.5
20260507060306 28 60 7.0 10.0 0.00 0.38 0.00 71 1013.6
20260507055805 34 57 5.0 9.0 0.00 0.38 0.00 71 1013.6
20260507055306 27 62 5.0 8.0 0.00 0.39 0.00 72 1013.5
20260507054806 35 56 5.0 7.0 0.00 0.39 0.00 70 1013.4
20260507053806 35 54 5.0 8.0 0.00 0.39 0.00 69 1013.3
20260507053306 35 66 3.0 10.0 0.00 0.39 0.00 68 1019.2
20260507052805 35 59 8.0 12.0 0.00 0.39 0.00 67 1013.3
20260507052307 35 45 5.0 7.0 0.00 0.40 0.00 68 1013.3
20260507051806 35 69 6.0 12.0 0.00 0.40 0.00 67 1013.1
20260507051306 35 69 9.0 14.0 0.00 0.40 0.00 67 1013.2
20260507050806 35 73 6.0 9.0 0.00 0.40 0.00 69 1013.2
20260507050306 35 34 5.0 12.0 0.00 0.40 0.00 69 1013.1
20260507045805 30 63 6.0 12.0 0.00 0.40 0.40 69 1013.0
20260507045307 29 78 4.0 9.0 0.00 0.40 0.40 71 1012.9
20260507044806 30 46 4.0 9.0 0.00 0.40 0.40 71 1013.2
20260507044306 29 66 6.0 7.0 0.00 0.40 0.40 71 1012.9
20260507043806 31 58 4.0 6.0 0.00 0.40 0.40 59 1021.7
20260507043305 29 27 2.0 5.0 0.00 0.40 0.40 73 1012.9
20260507042806 31 53 3.0 5.0 0.00 0.40 0.40 73 1012.7
20260507042307 30 66 1.0 3.0 0.00 0.40 0.40 73 1012.8
20260507041806 31 66 2.0 5.0 0.00 0.40 0.40 72 1012.8
20260507041305 30 55 3.0 6.0 0.00 0.40 0.40 57 1023.0
20260507040806 33 55 3.0 5.0 0.00 0.40 0.40 72 1012.6
20260507040305 31 62 3.0 5.0 0.00 0.40 0.40 71 1012.6
20260507035806 33 51 1.0 3.0 0.00 0.40 0.40 72 1012.7
20260507035306 32 29 1.0 3.0 0.00 0.40 0.40 70 1012.5
20260507034806 33 0 2.0 3.0 0.00 0.41 0.40 41 1020.6
20260507033806 34 336 1.0 3.0 0.00 0.41 0.40 67 1012.2
20260507033305 33 160 1.0 5.0 0.00 0.41 0.40 46 1018.8
20260507032806 34 98 2.0 3.0 0.00 0.41 0.40 65 1012.1
20260507031806 35 56 2.0 3.0 0.00 0.41 0.40 63 1011.9
20260507031305 34 254 1.0 2.0 0.00 0.41 0.40 61 1011.8
20260507030805 33 59 2.0 5.0 0.00 0.41 0.40 62 1011.6
20260507030305 35 110 2.0 6.0 0.00 0.41 0.40 54 1011.7
20260507025805 34 62 4.0 6.0 0.00 0.41 0.40 60 1011.5
20260507025307 35 336 2.0 5.0 0.00 0.41 0.40 53 1014.3
20260507024805 35 191 1.0 12.0 0.00 0.41 0.40 57 1011.3
20260507024305 37 90 2.0 9.0 0.00 0.41 0.40 57 1011.2
20260507023806 35 212 5.0 10.0 0.00 0.41 0.40 39 1017.5
20260507023306 34 229 4.0 10.0 0.00 0.41 0.40 60 1011.1
20260507022806 36 165 3.0 10.0 0.00 0.41 0.40 53 1010.9
20260507021806 36 251 1.0 3.0 0.00 0.41 0.40 64 1010.7
20260507021306 34 316 2.0 5.0 0.00 0.41 0.40 65 1010.7
20260507020806 36 286 2.0 3.0 0.00 0.41 0.40 65 1010.5
20260507020306 34 216 1.0 5.0 0.00 0.41 0.40 65 1010.5
20260507015806 34 37 3.0 5.0 0.00 0.41 0.40 32 1018.3
20260507014807 34 223 3.0 7.0 0.00 0.42 0.40 67 1010.4
20260507014306 35 297 0.0 5.0 0.00 0.42 0.40 65 1010.3
20260507013806 35 145 3.0 5.0 0.00 0.42 0.40 40 1016.2
20260507013305 50 293 1.0 3.0 0.00 0.42 0.40 65 1010.1
20260507012805 49 38 2.0 6.0 0.00 0.42 0.40 60 1010.0
20260507012306 49 25 3.0 6.0 0.01 0.43 0.40 36 1016.2
20260507011305 49 245 1.0 6.0 0.01 0.43 0.40 27 1009.7
20260507010806 49 51 3.0 5.0 0.01 0.43 0.40 47 1009.7
20260507010305 49 183 2.0 7.0 0.01 0.43 0.40 45 1009.7
20260507005806 49 18 3.0 6.0 0.02 0.44 0.40 54 1018.0
20260507005306 39 347 1.0 3.0 0.02 0.44 0.40 56 1009.8
20260507004805 49 223 1.0 7.0 0.02 0.44 0.40 54 1009.6
20260507004305 41 34 5.0 7.0 0.02 0.44 0.40 44 1009.6
20260507003805 49 281 2.0 8.0 0.01 0.44 0.40 28 1009.5
20260507003306 41 189 2.0 14.0 0.02 0.44 0.40 45 1009.3
20260507002805 49 162 9.0 14.0 0.02 0.44 0.40 44 1009.4
20260507001806 49 205 7.0 9.0 0.03 0.44 0.39 48 1009.1
20260507001305 49 205 6.0 9.0 0.03 0.44 0.39 48 1009.2
20260507000806 50 214 4.0 8.0 0.03 0.44 0.39 50 1009.1
20260507000306 49 152 5.0 6.0 0.03 0.44 0.39 35 1009.0
20260506234805 49 80 1.0 7.0 0.05 0.44 0.38 39 1009.2
20260506233805 49 173 5.0 13.0 0.06 0.44 0.38 50 1008.8
20260506233305 49 170 6.0 16.0 0.06 0.43 0.38 48 1008.7
20260506232805 49 161 5.0 16.0 0.06 0.43 0.38 48 1008.8
20260506231305 49 166 3.0 13.0 0.06 0.42 0.36 46 1008.6
20260506230805 49 188 6.0 14.0 0.06 0.41 0.36 45 1008.6
20260506230306 49 198 6.0 15.0 0.06 0.41 0.36 46 1008.5
20260506225805 46 207 5.0 9.0 0.06 0.40 0.35 51 1008.4
20260506224305 46 181 6.0 16.0 0.06 0.40 0.33 43 1008.4
20260506223805 47 201 6.0 18.0 0.06 0.39 0.33 43 1008.4
20260506223304 46 185 5.0 18.0 0.06 0.39 0.32 49 1008.3
20260506222805 47 148 6.0 15.0 0.06 0.39 0.32 44 1008.4
20260506222306 46 183 2.0 12.0 0.05 0.38 0.31 45 1017.9
20260506221805 46 167 6.0 14.0 0.05 0.38 0.31 50 1008.2
20260506221304 47 148 6.0 12.0 0.04 0.37 0.30 48 1008.3
20260506220805 46 84 4.0 14.0 0.04 0.36 0.30 52 1008.4
20260506220305 46 159 6.0 28.0 0.04 0.36 0.29 50 1008.4
20260506215805 44 196 7.0 28.0 0.03 0.35 0.28 54 1013.6
20260506214805 44 195 7.0 13.0 0.02 0.34 0.27 53 1014.3
20260506213805 44 178 1.0 3.0 0.01 0.33 0.26 49 1017.4
20260506213305 44 231 2.0 3.0 0.02 0.33 0.26 64 1008.3
20260506212805 44 241 2.0 6.0 0.02 0.33 0.26 62 1008.4
20260506212306 44 156 2.0 6.0 0.02 0.34 0.26 65 1008.3
20260506211805 44 191 5.0 6.0 0.02 0.33 0.26 49 1017.8
20260506211305 44 202 2.0 8.0 0.02 0.34 0.26 66 1008.4
20260506210805 44 181 5.0 13.0 0.02 0.34 0.26 66 1008.4
20260506210304 44 163 7.0 15.0 0.02 0.34 0.26 65 1008.1
20260506205805 44 88 5.0 18.0 0.02 0.34 0.26 67 1008.1
20260506205306 44 61 6.0 14.0 0.02 0.34 0.26 48 1016.8
20260506204805 45 330 2.0 5.0 0.02 0.34 0.26 65 1008.0
20260506204305 44 168 5.0 12.0 0.02 0.34 0.25 51 1015.2
20260506203804 44 178 1.0 8.0 0.02 0.34 0.25 67 1008.0
20260506203305 44 147 4.0 10.0 0.02 0.33 0.25 56 1013.3
20260506202306 44 179 2.0 5.0 0.02 0.33 0.24 48 1017.1
20260506201805 45 223 2.0 14.0 0.02 0.33 0.24 65 1008.0
20260506201305 44 152 7.0 14.0 0.02 0.32 0.24 47 1017.4
20260506200804 44 148 3.0 10.0 0.02 0.32 0.24 63 1007.8
20260506200305 44 243 2.0 12.0 0.02 0.32 0.24 53 1014.1
20260506195805 36 345 3.0 12.0 0.02 0.32 0.24 61 1007.9
20260506195306 36 140 6.0 12.0 0.02 0.32 0.24 59 1007.7
20260506194805 37 44 4.0 10.0 0.02 0.32 0.24 62 1007.8
20260506194304 37 104 2.0 5.0 0.02 0.32 0.23 59 1007.7
20260506193805 38 163 1.0 6.0 0.02 0.32 0.23 61 1007.5
20260506193305 36 158 3.0 7.0 0.02 0.31 0.23 48 1007.6
20260506192306 36 29 2.0 8.0 0.02 0.31 0.23 69 1007.5
20260506191804 37 124 2.0 8.0 0.02 0.31 0.22 67 1016.3
20260506191305 35 170 1.0 8.0 0.02 0.31 0.22 69 1007.5
20260506190804 37 105 4.0 7.0 0.02 0.30 0.22 56 1007.5
20260506185805 35 191 2.0 8.0 0.05 0.30 0.22 69 1007.5
20260506185307 34 163 4.0 12.0 0.05 0.30 0.22 67 1014.5
20260506184805 33 152 5.0 14.0 0.04 0.30 0.21 74 1007.4
20260506184305 34 162 3.0 12.0 0.04 0.29 0.21 81 1007.3